sat.trackr.live / text

‹ back to catalog

STARLINK-6085

NORAD 57115 · 2023-090Q

PAYLOAD ACTIVE UNKNOWN

§ Identity

Operator
Country
US
Launch date
2023-06-23
Launch site
AFETR
Launch vehicle
Mass (kg)
RCS (m²)

Purposes: comms

External: N2YO · Heavens-Above · Gunter

§ Orbital elements

Epoch: 2026-05-25T03:59:51.162432Z

Period
94.98 min
Inclination
42.9978°
Eccentricity
0.0020579
Mean motion
15.16077561 rev/d
Perigee alt
503.5 km
Apogee alt
531.9 km
Semi-major
6,895.8 km
B*
1.3985e-3
RAAN
199.9154°
Arg perigee
332.0929°
Mean anomaly
27.8814°
Rev number
16,214

§ Raw data

STARLINK-60851 57115U 23090Q   26145.16656438  .00027426  00000+0  13985-2 0  99982 57115  42.9978 199.9154 0020579 332.0929  27.8814 15.16077561162142

JSON: /api/v1/satellites/57115 · /tle

For live sub-satellite position, see the globe view (requires WebGL).

§ Visibility from observer

Set your observer location to see the next 7 days of passes ≥ 10°. The values pass through the URL so the page stays shareable.

No JS? Fill the form by hand. The geolocation button needs JavaScript.